Temp
-15 -15 -15 -16 -16 -15 -15 -15 -15 -15 -15 -15 -15 -16 -16 -16 -15 -15 -15 -15 -15 -14 -14 -15 -14 -14 -15 -14 -14 -14 -14 -15 -15 -15 -15 -15 -16 -16 -16 -16 -15 -14 -14 -14 -13 -13 -13
-15 -16 -16 -16 -16 -16 -15 -15 -15 -15 -15 -15 -15 -16 -16 -16 -16 -15 -15 -15 -15 -14 -15 -15 -15 -15 -15 -15 -15 -15 -15 -15 -15 -16 -15 -15 -16 -16 -16 -15 -15 -14 -13 -13 -13 -13 -13
-16 -16 -16 -16 -16 -15 -15 -15 -15 -15 -15 -16 -16 -16 -16 -16 -16 -16 -15 -15 -14 -15 -14 -14 -15 -15 -15 -14 -14 -14 -15 -14 -14 -14 -14 -14 -14 -15 -15 -14 -14 -13 -13 -13 -13 -13 -13
-16 -17 -16 -16 -16 -15 -15 -15 -15 -15 -16 -16 -16 -16 -16 -16 -15 -15 -15 -15 -15 -14 -14 -15 -15 -15 -15 -14 -14 -14 -14 -14 -14 -14 -14 -14 -14 -14 -14 -13 -13 -13 -13 -13 -14 -13 -13
-16 -17 -16 -16 -16 -15 -15 -15 -15 -15 -15 -16 -16 -16 -15 -15 -15 -15 -15 -14 -14 -14 -14 -14 -14 -14 -14 -14 -14 -14 -14 -13 -14 -14 -14 -14 -14 -13 -13 -13 -13 -13 -14 -15 -14 -14 -13
-17 -17 -17 -16 -16 -15 -15 -15 -15 -15 -16 -16 -16 -16 -15 -16 -15 -15 -14 -14 -14 -14 -14 -14 -15 -15 -14 -14 -14 -14 -14 -14 -14 -14 -13 -13 -13 -13 -13 -14 -15 -15 -14 -14 -14 -13 -13
-17 -17 -16 -16 -15 -15 -15 -15 -15 -15 -16 -16 -16 -16 -15 -15 -15 -14 -14 -14 -14 -14 -14 -14 -15 -14 -14 -14 -14 -14 -14 -14 -14 -14 -13 -14 -14 -15 -15 -13 -13 -13 -13 -14 -14 -13 -13
-17 -17 -16 -16 -16 -15 -15 -15 -15 -15 -15 -16 -17 -16 -15 -14 -14 -14 -14 -14 -14 -14 -15 -14 -14 -14 -14 -14 -14 -14 -14 -14 -14 -14 -14 -15 -14 -14 -14 -14 -13 -14 -14 -14 -13 -13 -13
-17 -17 -16 -16 -16 -15 -15 -15 -15 -15 -15 -15 -16 -15 -14 -14 -14 -14 -14 -14 -14 -15 -14 -14 -14 -14 -14 -14 -14 -14 -14 -13 -13 -14 -14 -14 -14 -14 -14 -14 -14 -14 -14 -13 -14 -13 -13
-17 -17 -16 -16 -16 -15 -15 -15 -15 -15 -15 -15 -15 -15 -14 -14 -14 -14 -14 -14 -14 -15 -14 -14 -14 -14 -14 -14 -14 -13 -13 -13 -13 -13 -14 -13 -14 -14 -14 -13 -13 -13 -13 -13 -13 -13 -14
-17 -17 -16 -16 -16 -15 -15 -15 -15 -15 -15 -15 -14 -14 -14 -14 -14 -14 -14 -14 -14 -14 -14 -14 -14 -14 -14 -13 -14 -13 -13 -13 -13 -14 -14 -13 -14 -13 -13 -13 -13 -13 -13 -13 -13 -13 -13
-17 -17 -16 -16 -16 -15 -15 -15 -14 -15 -15 -14 -14 -14 -14 -14 -14 -14 -14 -14 -14 -14 -14 -14 -14 -14 -14 -14 -14 -14 -14 -14 -14 -14 -14 -14 -14 -14 -14 -14 -14 -14 -13 -13 -13 -13 -13
-17 -17 -16 -16 -15 -15 -15 -15 -14 -14 -14 -14 -14 -14 -14 -14 -14 -14 -14 -14 -14 -14 -14 -14 -14 -14 -14 -14 -14 -14 -14 -14 -14 -14 -14 -14 -14 -14 -14 -14 -14 -14 -14 -14 -14 -15 -15
-17 -17 -16 -16 -15 -15 -15 -15 -14 -14 -14 -14 -14 -14 -14 -14 -14 -14 -14 -14 -14 -14 -14 -14 -14 -14 -14 -14 -14 -14 -14 -14 -14 -14 -14 -14 -14 -14 -14 -14 -14 -14 -14 -14 -14 -15 -14
-17 -17 -16 -16 -15 -15 -15 -14 -14 -14 -14 -14 -14 -14 -14 -14 -14 -14 -14 -14 -14 -14 -14 -14 -14 -14 -14 -14 -14 -14 -14 -14 -14 -14 -14 -14 -14 -14 -14 -14 -14 -14 -14 -14 -14 -14 -14
-17 -17 -16 -16 -15 -15 -15 -15 -14 -14 -14 -14 -14 -14 -14 -14 -14 -14 -14 -14 -13 -14 -14 -14 -14 -14 -14 -14 -14 -14 -14 -14 -14 -14 -14 -14 -14 -14 -14 -14 -15 -14 -14 -14 -14 -14 -14
-17 -17 -16 -16 -15 -15 -15 -14 -14 -14 -14 -14 -14 -14 -14 -14 -14 -14 -14 -14 -14 -14 -14 -14 -14 -14 -14 -14 -14 -14 -14 -14 -14 -14 -14 -14 -14 -14 -14 -14 -14 -14 -14 -14 -15 -15 -15
-17 -17 -17 -16 -16 -15 -15 -15 -14 -14 -14 -14 -14 -14 -14 -14 -14 -14 -14 -13 -14 -14 -14 -14 -14 -14 -14 -14 -14 -14 -14 -14 -14 -14 -14 -14 -14 -14 -14 -14 -15 -15 -15 -15 -15 -15 -16
-18 -17 -17 -16 -16 -15 -15 -15 -14 -14 -14 -14 -14 -14 -14 -14 -14 -14 -13 -13 -13 -14 -13 -13 -13 -14 -14 -14 -14 -14 -14 -14 -14 -14 -14 -14 -14 -14 -14 -14 -14 -14 -15 -15 -15 -15 -15
-18 -17 -17 -16 -16 -16 -15 -15 -14 -14 -14 -14 -14 -14 -14 -14 -13 -13 -14 -13 -14 -14 -14 -14 -14 -14 -14 -14 -14 -14 -14 -14 -14 -14 -14 -14 -14 -14 -15 -15 -15 -15 -15 -15 -15 -15 -15
-18 -18 -18 -17 -17 -16 -15 -15 -14 -14 -14 -14 -14 -14 -14 -14 -13 -14 -14 -14 -13 -13 -14 -14 -14 -14 -14 -14 -14 -14 -14 -14 -14 -14 -14 -14 -14 -14 -15 -15 -15 -15 -15 -15 -15 -16 -16
-18 -18 -18 -17 -17 -17 -16 -15 -15 -14 -14 -14 -14 -14 -14 -14 -14 -13 -13 -14 -14 -14 -14 -14 -14 -14 -14 -14 -14 -14 -14 -14 -14 -14 -14 -14 -14 -14 -14 -15 -15 -15 -15 -15 -15 -16 -16
-18 -18 -18 -18 -17 -17 -16 -16 -15 -15 -14 -14 -14 -14 -14 -14 -14 -14 -14 -14 -14 -14 -14 -14 -14 -14 -13 -14 -14 -14 -14 -14 -14 -14 -14 -14 -14 -14 -14 -15 -15 -15 -15 -15 -15 -16 -16
-19 -18 -18 -18 -18 -17 -17 -16 -15 -15 -14 -14 -14 -14 -14 -14 -14 -14 -14 -14 -13 -14 -14 -14 -14 -14 -14 -14 -14 -14 -14 -14 -14 -14 -14 -15 -15 -15 -15 -15 -15 -15 -16 -15 -16 -16 -16
-19 -19 -18 -18 -18 -17 -17 -17 -16 -15 -15 -15 -14 -14 -14 -14 -14 -13 -14 -14 -13 -14 -14 -13 -14 -14 -14 -14 -14 -14 -14 -14 -14 -14 -15 -15 -15 -15 -15 -15 -15 -16 -15 -16 -16 -17 -16
-18 -19 -19 -18 -18 -18 -17 -17 -17 -16 -16 -15 -15 -14 -14 -14 -14 -14 -14 -13 -14 -13 -14 -14 -14 -14 -14 -14 -14 -14 -14 -15 -14 -15 -15 -15 -15 -15 -15 -15 -15 -16 -16 -16 -16 -16 -16
-18 -19 -19 -18 -19 -18 -18 -17 -17 -17 -16 -16 -15 -15 -14 -14 -14 -14 -14 -14 -14 -14 -13 -14 -14 -14 -14 -14 -14 -14 -14 -15 -15 -14 -15 -15 -15 -15 -15 -16 -16 -16 -16 -16 -16 -17 -17
-18 -19 -19 -19 -18 -19 -18 -18 -17 -17 -17 -16 -16 -15 -15 -15 -14 -14 -14 -14 -14 -14 -14 -14 -14 -14 -14 -14 -14 -14 -14 -15 -15 -15 -15 -15 -16 -16 -16 -16 -16 -16 -16 -16 -17 -18 -18
-19 -19 -19 -19 -19 -19 -18 -18 -18 -17 -17 -17 -16 -16 -16 -15 -15 -15 -15 -14 -14 -14 -14 -14 -14 -14 -14 -14 -14 -15 -15 -15 -15 -15 -16 -16 -16 -16 -16 -17 -17 -17 -16 -17 -18 -18 -18
Height
5734 5735 5737 5737 5738 5738 5739 5738 5737 5738 5737 5738 5739 5740 5741 5741 5744 5749 5753 5756 5760 5763 5765 5768 5770 5773 5776 5780 5782 5784 5787 5789 5793 5796 5799 5801 5805 5811 5815 5814 5814 5814 5815 5817 5820 5823 5824
5728 5729 5731 5733 5733 5734 5735 5734 5734 5735 5734 5734 5734 5736 5737 5739 5742 5748 5752 5756 5759 5762 5764 5767 5770 5773 5777 5780 5781 5785 5787 5789 5791 5796 5800 5800 5805 5809 5812 5814 5815 5817 5818 5821 5823 5825 5827
5723 5724 5725 5728 5728 5730 5731 5731 5732 5731 5729 5728 5729 5732 5734 5736 5741 5748 5752 5756 5759 5761 5763 5767 5770 5774 5778 5780 5781 5788 5789 5793 5795 5798 5799 5804 5805 5809 5812 5814 5816 5819 5821 5823 5825 5826 5827
5718 5719 5720 5724 5724 5726 5727 5728 5729 5728 5726 5727 5728 5731 5731 5736 5742 5747 5751 5755 5758 5761 5765 5769 5773 5777 5782 5785 5787 5789 5791 5794 5798 5800 5803 5805 5808 5810 5813 5816 5819 5821 5822 5823 5825 5826 5827
5711 5715 5716 5719 5720 5722 5724 5726 5727 5726 5727 5727 5729 5731 5734 5739 5743 5747 5752 5756 5760 5764 5768 5773 5777 5780 5783 5787 5789 5793 5795 5797 5801 5804 5806 5808 5811 5814 5817 5819 5821 5823 5824 5827 5826 5825 5826
5706 5709 5712 5714 5716 5718 5721 5724 5723 5723 5724 5726 5728 5731 5736 5740 5743 5749 5754 5758 5763 5768 5772 5776 5780 5783 5787 5790 5793 5796 5798 5801 5803 5806 5809 5812 5814 5816 5819 5818 5821 5823 5829 5827 5826 5826 5825
5702 5705 5708 5710 5712 5715 5718 5720 5721 5722 5723 5724 5726 5730 5736 5741 5746 5751 5757 5761 5769 5772 5775 5777 5782 5786 5789 5793 5796 5799 5801 5804 5806 5808 5810 5813 5812 5817 5816 5818 5820 5822 5824 5824 5823 5823 5823
5697 5700 5704 5706 5709 5712 5716 5717 5719 5721 5724 5726 5728 5732 5737 5743 5748 5754 5759 5765 5766 5775 5780 5784 5786 5790 5792 5796 5798 5801 5803 5805 5807 5808 5810 5813 5813 5814 5817 5818 5819 5821 5821 5821 5820 5820 5821
5692 5696 5700 5703 5705 5710 5713 5715 5717 5721 5723 5726 5730 5734 5739 5746 5752 5758 5765 5771 5773 5777 5782 5786 5789 5792 5795 5798 5800 5802 5803 5804 5805 5806 5809 5810 5812 5814 5816 5817 5818 5818 5818 5818 5818 5818 5818
5687 5692 5696 5700 5702 5707 5710 5712 5716 5719 5722 5726 5730 5736 5743 5749 5757 5763 5768 5773 5776 5780 5784 5789 5791 5794 5796 5798 5800 5801 5802 5804 5805 5807 5808 5810 5812 5813 5814 5815 5816 5814 5817 5816 5816 5816 5816
5684 5688 5693 5696 5700 5704 5707 5710 5715 5717 5722 5727 5732 5739 5746 5753 5758 5763 5770 5775 5778 5782 5786 5791 5792 5795 5796 5798 5800 5801 5802 5803 5805 5806 5808 5809 5810 5811 5812 5813 5813 5813 5813 5813 5813 5813 5813
5679 5685 5689 5693 5697 5701 5704 5709 5713 5718 5723 5729 5735 5742 5749 5755 5762 5767 5772 5776 5781 5785 5787 5790 5792 5794 5796 5798 5799 5800 5802 5803 5804 5804 5805 5807 5808 5809 5810 5810 5810 5810 5809 5809 5808 5807 5808
5675 5681 5686 5690 5695 5699 5702 5707 5713 5719 5724 5731 5737 5745 5752 5757 5762 5768 5773 5777 5782 5784 5788 5791 5792 5794 5795 5796 5797 5798 5799 5799 5801 5802 5802 5804 5805 5806 5806 5806 5806 5805 5804 5803 5803 5802 5803
5671 5678 5683 5688 5693 5697 5701 5706 5713 5720 5726 5732 5739 5746 5752 5759 5764 5769 5773 5779 5781 5784 5787 5789 5791 5792 5794 5794 5795 5796 5796 5797 5798 5799 5800 5801 5803 5804 5804 5803 5803 5802 5801 5801 5800 5801 5800
5668 5674 5680 5685 5690 5695 5700 5707 5714 5720 5727 5733 5740 5747 5753 5759 5764 5769 5774 5777 5780 5783 5786 5788 5790 5791 5791 5792 5793 5793 5794 5795 5796 5797 5800 5800 5801 5802 5802 5802 5802 5800 5799 5798 5797 5796 5796
5664 5671 5677 5683 5688 5693 5699 5706 5714 5721 5728 5734 5741 5747 5753 5759 5764 5769 5773 5776 5779 5782 5785 5787 5788 5789 5788 5790 5791 5791 5791 5793 5794 5796 5798 5800 5801 5800 5800 5800 5799 5797 5797 5795 5792 5790 5789
5661 5667 5674 5680 5686 5692 5699 5706 5713 5721 5728 5735 5742 5748 5753 5758 5763 5768 5772 5775 5779 5781 5783 5785 5785 5786 5787 5788 5789 5789 5791 5793 5794 5796 5797 5798 5799 5800 5799 5798 5796 5795 5793 5792 5790 5787 5783
5657 5664 5671 5677 5683 5690 5697 5705 5713 5720 5728 5734 5740 5746 5752 5757 5763 5767 5770 5773 5777 5779 5781 5782 5783 5784 5785 5786 5787 5788 5790 5792 5793 5795 5796 5797 5797 5797 5796 5796 5795 5794 5792 5789 5786 5785 5779
5654 5661 5669 5675 5681 5688 5696 5704 5711 5719 5726 5733 5738 5745 5750 5756 5760 5764 5768 5772 5774 5777 5778 5780 5781 5782 5783 5785 5787 5788 5789 5791 5792 5793 5794 5795 5795 5794 5793 5794 5792 5788 5785 5782 5777 5774 5773
5651 5659 5666 5672 5679 5686 5694 5702 5710 5717 5724 5731 5738 5744 5749 5754 5758 5762 5766 5769 5771 5773 5775 5777 5779 5780 5782 5783 5785 5786 5788 5789 5790 5791 5792 5792 5792 5792 5791 5789 5786 5782 5779 5775 5769 5764 5758
5649 5657 5664 5670 5676 5684 5692 5699 5707 5715 5722 5729 5736 5741 5747 5752 5757 5760 5764 5766 5768 5770 5772 5774 5776 5778 5779 5781 5782 5784 5785 5786 5788 5788 5789 5789 5788 5787 5786 5784 5781 5777 5773 5768 5763 5757 5751
5647 5654 5662 5668 5675 5682 5689 5696 5704 5712 5719 5725 5732 5738 5743 5749 5752 5756 5760 5763 5765 5766 5769 5771 5773 5775 5776 5778 5780 5780 5782 5783 5785 5785 5785 5784 5784 5782 5781 5779 5776 5772 5769 5763 5756 5749 5745
5644 5652 5660 5667 5673 5679 5687 5694 5701 5708 5715 5721 5728 5733 5739 5744 5749 5753 5757 5758 5760 5763 5765 5767 5769 5771 5773 5776 5776 5777 5778 5780 5781 5781 5780 5779 5778 5777 5776 5772 5771 5766 5762 5757 5750 5742 5737
5641 5650 5657 5665 5671 5677 5684 5691 5697 5704 5711 5719 5724 5730 5736 5740 5745 5749 5752 5754 5755 5759 5761 5763 5765 5768 5770 5771 5773 5774 5775 5775 5775 5776 5775 5774 5771 5770 5768 5765 5763 5759 5753 5750 5744 5737 5733
5638 5647 5655 5662 5669 5675 5681 5688 5694 5701 5707 5714 5719 5726 5731 5736 5740 5744 5747 5748 5751 5755 5756 5760 5762 5764 5765 5767 5769 5769 5770 5771 5770 5770 5768 5766 5765 5762 5760 5756 5755 5750 5743 5744 5737 5732 5726
5636 5644 5652 5659 5666 5673 5679 5685 5691 5697 5703 5709 5715 5721 5726 5730 5735 5738 5740 5744 5747 5750 5753 5754 5757 5759 5760 5762 5764 5765 5765 5765 5765 5764 5762 5760 5758 5756 5753 5748 5745 5741 5735 5729 5727 5724 5719
5632 5641 5649 5656 5663 5669 5676 5681 5687 5693 5698 5704 5709 5715 5720 5725 5729 5732 5735 5739 5742 5745 5748 5750 5751 5753 5756 5757 5758 5759 5759 5759 5757 5757 5756 5753 5750 5748 5743 5740 5738 5733 5727 5724 5720 5717 5710
5628 5637 5645 5653 5660 5666 5672 5678 5683 5688 5693 5699 5704 5709 5714 5718 5722 5726 5729 5732 5736 5739 5742 5744 5746 5748 5749 5750 5752 5752 5751 5751 5751 5748 5747 5745 5743 5740 5736 5732 5728 5721 5717 5716 5711 5703 5699
5624 5633 5642 5649 5656 5662 5668 5674 5679 5683 5688 5693 5698 5703 5707 5712 5716 5719 5723 5726 5729 5733 5735 5738 5738 5742 5742 5744 5745 5744 5744 5743 5743 5741 5738 5734 5735 5731 5729 5725 5717 5708 5704 5701 5696 5693 5688
Wind_Speed
36 32 30 27 26 24 23 20 18 20 20 22 22 21 19 17 18 22 18 15 14 11 12 14 12 16 19 17 14 20 21 24 24 23 21 22 14 10 3 7 9 11 14 15 16 13 10
36 32 28 28 23 22 21 18 17 17 19 24 25 24 21 19 18 21 17 13 12 16 15 15 17 21 20 20 21 22 24 24 25 22 15 21 17 17 8 10 5 11 15 14 12 10 9
30 31 28 27 22 20 19 16 18 20 18 16 17 18 17 20 21 17 15 15 17 16 14 20 23 23 20 21 21 14 18 13 11 15 21 17 20 19 17 11 11 9 8 5 3 4 4
32 30 22 24 20 19 17 17 19 14 12 12 14 13 15 23 22 20 21 22 18 20 25 25 25 24 22 20 22 23 22 23 21 18 16 17 14 14 14 10 8 7 4 2 1 3 3
34 28 22 23 19 18 16 16 16 14 12 13 17 19 21 24 24 23 23 21 25 32 34 34 33 31 30 26 24 22 21 20 18 16 15 14 13 13 12 12 10 5 4 3 10 6 5
28 25 24 21 19 18 15 17 13 12 15 18 21 21 22 27 27 24 24 35 38 37 36 32 30 29 27 25 24 22 20 19 19 18 16 15 16 13 10 10 5 7 3 16 13 5 6
26 23 23 20 20 17 16 14 12 16 13 13 19 21 35 30 28 28 37 40 37 35 34 33 29 26 25 21 18 18 17 16 14 15 17 12 14 1 16 6 9 16 13 7 11 7 9
24 24 22 19 21 17 17 13 16 20 17 18 20 31 30 28 31 39 40 38 39 34 28 25 24 22 21 17 17 14 13 12 12 13 10 8 8 7 11 9 10 17 13 13 12 9 10
25 23 22 19 19 18 18 12 19 22 19 21 24 28 33 36 42 41 37 34 34 30 27 24 22 21 18 15 13 11 9 8 8 7 7 7 4 7 8 9 9 12 13 12 12 11 11
26 24 21 21 19 19 16 14 23 22 25 26 33 39 41 42 40 38 36 32 30 27 27 23 21 17 14 13 11 8 7 5 5 7 7 5 7 8 10 11 10 16 10 14 14 15 14
28 25 23 21 20 18 15 20 25 26 29 38 43 46 44 41 41 38 35 31 29 27 25 19 15 12 9 7 5 4 2 1 3 6 9 8 10 10 12 12 13 17 17 17 18 19 19
29 25 24 23 20 18 18 27 30 34 42 46 47 45 41 40 36 34 31 28 26 22 16 15 11 7 6 3 1 1 2 4 6 9 11 10 11 12 12 14 16 18 20 20 21 21 21
29 26 26 24 22 20 25 31 37 43 47 47 46 42 39 37 36 32 30 27 23 17 13 11 8 3 0 3 5 5 6 6 7 8 11 11 11 11 13 14 12 14 14 13 13 11 11
30 29 27 27 24 24 31 37 44 47 49 47 43 40 37 35 33 31 29 24 21 15 11 7 2 4 6 8 8 8 7 5 5 6 7 6 4 5 6 7 9 10 10 11 11 11 16
31 30 29 28 26 29 36 42 47 48 46 45 41 38 36 35 33 31 27 23 18 13 8 4 5 9 10 9 8 7 6 6 7 7 7 6 3 4 5 8 10 10 12 14 16 17 18
32 32 31 29 27 32 38 44 48 47 45 43 40 37 36 34 32 29 26 21 14 9 7 8 11 11 10 7 5 6 6 4 5 5 4 3 2 3 5 7 9 13 14 17 20 22 22
33 32 32 30 29 35 41 46 48 47 44 41 38 36 35 34 32 29 24 19 11 11 10 11 13 10 7 5 4 4 4 5 5 5 4 3 1 2 6 9 13 18 21 19 20 24 26
34 33 30 29 31 36 42 47 49 48 44 41 38 37 36 34 30 26 23 16 13 13 13 14 12 8 6 6 4 3 4 6 6 6 5 4 2 6 10 12 14 18 21 24 27 27 29
36 34 31 31 33 38 43 46 48 46 44 40 39 37 35 33 30 26 20 15 17 16 16 15 11 9 6 6 6 6 6 6 7 7 6 4 6 11 14 15 18 23 28 33 36 34 27
37 35 32 31 33 38 42 46 47 46 44 42 40 36 35 32 28 25 22 21 19 18 16 14 12 11 9 8 8 8 8 8 8 8 7 8 9 11 14 18 24 28 33 39 42 39 37
37 35 33 31 32 37 42 46 46 46 44 42 39 38 35 31 27 25 23 22 21 19 16 15 14 12 12 11 11 10 10 10 9 10 10 11 13 15 17 20 25 30 36 42 42 37 36
38 35 33 32 31 35 39 44 47 47 46 44 41 38 34 30 29 27 24 21 20 19 17 16 16 15 15 15 14 12 11 11 10 12 12 15 17 19 22 24 27 32 36 42 43 39 35
40 37 35 33 32 32 36 40 44 46 45 45 41 38 36 33 30 28 24 23 22 18 19 19 19 19 17 14 15 14 13 13 12 13 16 19 22 23 25 29 31 36 37 43 41 36 34
41 39 36 33 32 31 34 37 41 43 45 42 41 39 36 35 32 28 25 22 23 22 21 21 21 19 18 19 16 15 15 15 15 17 20 22 25 27 29 32 34 37 39 42 38 34 31
42 40 37 35 33 31 32 35 39 40 41 42 42 40 38 36 33 29 25 26 23 23 24 20 20 21 21 19 18 18 18 18 19 20 24 26 28 32 35 37 38 39 47 39 39 32 32
43 41 38 36 34 32 32 33 35 38 39 40 40 40 38 37 34 32 30 28 28 25 23 24 23 23 22 21 21 20 22 22 23 24 26 30 32 35 38 41 43 44 46 49 42 36 37
44 42 40 37 35 32 32 33 34 35 37 38 38 38 38 36 35 34 33 31 30 28 27 26 25 25 23 23 23 24 26 26 29 29 30 33 35 37 41 43 43 46 49 47 45 42 38
46 43 41 38 36 36 32 32 33 34 34 36 37 37 37 37 37 36 35 35 33 31 30 29 28 26 25 26 27 27 29 30 32 34 35 37 37 40 42 44 46 50 51 51 46 43 43
46 44 42 39 38 36 34 32 32 32 33 34 34 36 36 37 37 37 37 38 36 34 33 30 32 29 30 30 31 32 33 34 35 37 38 41 39 43 45 44 46 53 55 51 48 46 47
Wind_Direction
265 270 260 263 258 265 269 269 262 265 267 251 246 253 267 247 208 210 220 219 217 220 202 198 201 198 196 185 180 165 169 159 148 150 157 140 118 125 170 206 212 211 185 186 167 176 178
265 258 259 262 254 263 262 260 261 256 269 262 254 252 245 232 204 202 206 216 210 193 190 202 192 176 171 167 162 167 168 163 157 156 166 153 162 166 182 144 158 155 159 162 172 184 195
259 252 253 254 255 254 257 252 253 269 264 258 233 215 223 211 191 174 185 177 183 184 189 174 169 162 160 152 142 152 154 153 139 148 141 136 135 137 140 129 123 135 146 155 187 214 213
254 257 242 250 251 250 245 243 251 269 279 188 186 173 173 163 159 165 169 173 167 162 155 148 144 142 138 132 129 134 130 130 130 124 120 123 126 121 127 123 122 119 86 24 356 292 285
258 241 242 244 243 240 233 241 257 253 241 191 177 161 156 159 156 167 165 166 155 146 138 134 136 136 134 129 126 127 127 127 131 131 130 131 132 137 132 123 103 53 75 245 281 262 262
248 228 240 240 239 230 230 241 260 232 206 188 182 186 181 164 163 163 166 153 147 142 143 144 142 140 138 138 139 137 137 140 137 139 139 143 142 133 143 102 233 221 190 237 265 245 241
222 231 235 232 232 216 226 234 242 195 204 145 181 206 162 158 161 159 157 151 149 149 148 145 146 141 141 142 143 146 148 150 147 149 156 154 138 48 210 178 193 193 222 225 262 284 276
219 227 230 230 220 207 218 238 205 188 193 182 163 158 154 161 158 156 155 156 150 146 143 140 139 136 135 136 137 143 149 152 155 156 135 150 202 175 213 217 199 209 231 241 261 263 267
217 222 226 219 206 207 211 229 196 191 185 180 175 167 157 159 156 158 156 151 144 144 145 141 137 135 131 130 134 136 144 152 146 133 169 201 181 214 222 229 232 238 241 267 274 282 286
212 217 217 205 200 202 213 210 191 188 186 176 165 154 156 157 156 157 153 152 148 146 143 143 140 137 133 126 115 103 99 123 167 186 207 231 234 235 242 246 253 262 265 274 278 281 280
209 212 207 198 198 198 209 189 186 181 173 162 155 155 159 160 159 158 154 155 150 148 143 145 139 134 122 113 107 95 94 178 202 204 222 230 236 243 252 266 267 274 278 277 276 274 272
206 207 200 196 198 201 191 181 183 170 162 158 157 160 162 163 160 156 156 155 155 149 147 149 148 139 125 112 97 274 266 249 233 231 241 245 248 255 261 263 267 270 271 273 274 274 277
200 203 195 197 196 197 183 176 171 167 160 160 161 163 164 163 161 160 159 158 160 157 153 156 148 149 39 330 320 307 296 275 250 243 248 254 261 269 281 286 284 289 290 291 296 304 311
195 199 191 190 192 187 181 172 170 167 164 163 166 167 166 166 165 164 164 164 167 162 159 155 183 299 308 307 291 278 271 254 245 239 252 271 245 290 301 309 318 316 313 312 298 280 275
192 192 187 186 187 182 177 172 170 168 167 167 170 170 169 170 171 171 172 174 175 182 178 218 275 289 291 280 272 264 263 253 244 245 253 250 286 305 312 311 310 309 308 307 300 292 286
190 186 186 185 183 180 178 175 172 170 171 173 175 174 174 176 178 179 181 186 173 192 224 259 274 286 280 266 255 268 265 233 200 187 191 209 276 315 323 331 333 334 334 325 318 309 305
187 182 185 181 182 181 178 177 175 175 176 177 179 178 180 183 186 188 191 200 196 227 252 270 280 267 255 235 243 254 218 197 192 185 188 189 176 359 354 351 357 352 343 339 333 326 320
183 180 183 181 180 182 180 179 179 179 181 181 182 184 185 190 194 195 204 208 225 244 260 270 266 229 225 217 220 213 199 200 198 198 185 187 255 332 338 343 339 340 338 330 326 325 321
180 179 183 179 178 182 181 183 183 182 184 185 187 189 191 194 200 201 210 223 238 250 260 262 235 212 210 205 209 213 206 207 206 200 206 250 289 317 323 329 333 335 340 339 330 324 320
180 179 183 180 178 180 183 185 186 185 187 189 193 191 195 199 203 210 218 230 243 252 256 242 221 212 213 213 222 228 230 225 219 224 248 280 290 302 315 327 333 332 335 336 330 325 318
181 180 183 180 180 181 185 186 188 190 191 193 194 198 201 209 212 220 229 239 246 254 240 231 213 216 222 229 236 238 238 233 235 247 262 280 290 296 308 319 324 326 333 333 329 323 318
182 182 183 183 183 183 186 189 192 195 196 197 199 202 209 212 217 225 234 243 248 240 233 222 219 226 230 236 239 242 241 241 248 259 273 284 292 294 301 306 315 319 327 331 331 322 319
183 185 185 185 185 186 189 191 194 198 201 202 204 207 211 215 220 228 234 243 244 233 230 226 228 236 240 245 243 242 241 248 259 270 279 286 291 295 302 305 312 315 324 333 329 321 319
185 186 188 187 187 189 192 194 197 200 204 206 209 213 213 218 223 228 234 242 242 229 231 231 235 240 242 242 242 241 248 257 267 275 282 287 294 299 307 308 311 318 321 328 322 315 315
188 188 191 190 190 192 194 198 199 202 205 209 211 213 216 219 223 228 232 235 238 234 235 238 240 241 243 242 241 246 254 264 270 280 288 295 299 304 306 307 312 312 317 328 325 310 309
191 191 194 194 193 194 197 199 201 204 206 210 213 216 218 221 225 228 230 232 231 234 236 236 237 239 240 241 246 254 261 270 276 283 288 294 298 301 303 305 312 314 317 322 324 311 306
194 194 195 197 197 198 199 201 203 206 207 210 214 216 220 222 224 228 230 228 232 233 234 236 237 236 239 245 251 259 266 273 280 286 287 290 293 297 299 303 307 310 312 317 317 313 306
195 197 198 199 200 202 205 204 205 207 208 212 214 217 221 223 225 228 227 228 231 233 232 233 236 239 245 251 257 263 269 274 281 284 287 289 292 296 298 301 307 309 312 316 313 307 309
197 199 201 203 203 203 209 209 210 210 210 214 216 219 221 224 226 227 226 228 230 233 235 236 241 244 249 255 263 267 271 276 280 282 286 288 293 295 299 304 305 308 314 314 311 309 311